Weather History for KSGH - February, 2014

Change the Weather History Date:

Friday, February 14, 2014

  Actual Average (KDAY) Record (KDAY)
Temperature  
Mean Temperature 26 °F 31 °F  
Max Temperature 32 °F 39 °F 67 °F (1918)
Min Temperature 19 °F 23 °F -9 °F (1905)
Degree Days  
Heating Degree Days 40 34  
Month to date heating degree days 499  
Since 1 July heating degree days 3822  
Cooling Degree Days 0 0  
Month to date cooling degree days 0  
Year to date cooling degree days 0  
Moisture  
Dew Point 20 °F    
Average Humidity 86    
Maximum Humidity 100    
Minimum Humidity 57    
Precipitation  
Precipitation 0.02 in 0.08 in 2.27 in (1908)
Month to date precipitation 1.13  
Year to date precipitation 3.84  
Snow  
Snow 0.00 in 0.20 in 4.10 in (1977)
Month to date snowfall 3.1  
Since 1 July snowfall 16.5  
Snow Depth -    
Sea Level Pressure  
Sea Level Pressure 29.71 in    
Wind  
Wind Speed 13 mph (WNW)    
Max Wind Speed 23 mph    
Max Gust Speed 36 mph    
Visibility 3 miles    
Events Fog , Snow    
T = Trace of Precipitation, MM = Missing Value Source: NWS Daily Summary

Daily Weather History Graph

Daily Weather History Graph

Search for Another Location

Airport or City:

Trip Planner

Search our weather history database for the weather conditions in past years. The results will help you decide how hot, cold, wet, or windy it might be!

Date:

Astronomy

Feb. 14, 2014 Rise Set
Actual Time 7:29 AM EST 6:10 PM EST
Civil Twilight 7:01 AM EST 6:38 PM EST
Nautical Twilight 6:29 AM EST 7:09 PM EST
Astronomical Twilight 5:58 AM EST 7:41 PM EST
Moon 6:13 PM EST (2/14) 6:55 AM EST (2/14)
Length of Visible Light 11h 36m
Length of Day
10h 41m
Full, 100% of the Moon is Illuminated
Feb 14
Full
Feb 14
Full
Feb 22
Last Quarter
Mar 1
New
Mar 8
First Quarter

Hourly Weather History & Observations

Time (EST) Temp. Windchill Dew Point Humidity Pressure Visibility Wind Dir Wind Speed Gust Speed Precip Events Conditions
12:56 AM 32.9 °F 21.3 °F 19.0 °F 57% 29.60 in 10.0 mi WSW 19.6 mph 25.3 mph N/A   Overcast
1:56 AM 32.9 °F 21.3 °F 20.1 °F 59% 29.58 in 9.0 mi SW 19.6 mph - N/A   Overcast
2:56 AM 32.0 °F 20.8 °F 22.1 °F 67% 29.57 in 9.0 mi WSW 17.3 mph - N/A   Overcast
3:07 AM 32.0 °F 20.8 °F 21.2 °F 64% 29.54 in 9.0 mi WSW 17.3 mph - N/A   Overcast
3:56 AM 31.1 °F 18.0 °F 24.1 °F 75% 29.58 in 8.0 mi West 23.0 mph - N/A   Overcast
4:56 AM 30.0 °F 17.2 °F 24.1 °F 79% 29.61 in 7.0 mi West 20.7 mph 29.9 mph N/A   Mostly Cloudy
5:14 AM 30.2 °F 17.4 °F 23.0 °F 75% 29.60 in 8.0 mi West 20.7 mph 26.5 mph N/A   Scattered Clouds
5:56 AM 26.1 °F 12.0 °F 18.1 °F 72% 29.65 in 8.0 mi West 20.7 mph 35.7 mph N/A   Clear
6:56 AM 23.0 °F 10.1 °F 17.1 °F 78% 29.66 in 9.0 mi West 15.0 mph - N/A   Clear
7:56 AM 19.0 °F 6.8 °F 14.0 °F 81% 29.73 in 7.0 mi WNW 11.5 mph - N/A   Clear
8:56 AM 20.1 °F 8.1 °F 14.0 °F 77% 29.75 in 6.0 mi West 11.5 mph - N/A   Haze
9:04 AM 19.4 °F 6.6 °F 14.0 °F 80% 29.70 in 6.0 mi West 12.7 mph - N/A   Haze
9:20 AM 19.4 °F 7.2 °F 14.0 °F 80% 29.70 in 6.0 mi West 11.5 mph - N/A   Haze
9:56 AM 20.1 °F 6.4 °F 15.1 °F 81% 29.77 in 6.0 mi WSW 15.0 mph - N/A   Haze
10:30 AM 21.2 °F 8.3 °F 15.8 °F 80% 29.74 in 7.0 mi WSW 13.8 mph - N/A   Scattered Clouds
10:56 AM 23.0 °F 10.1 °F 16.2 °F 75% 29.79 in 6.0 mi West 15.0 mph - N/A   Haze
11:56 AM 24.1 °F 13.1 °F 17.1 °F 75% 29.79 in 6.0 mi WSW 11.5 mph - N/A   Haze
12:56 PM 25.2 °F 15.7 °F 17.1 °F 71% 29.78 in 6.0 mi West 9.2 mph - N/A   Haze
1:56 PM 26.1 °F 14.5 °F 19.0 °F 75% 29.75 in 4.0 mi WSW 13.8 mph - 0.00 in Snow Light Snow
2:04 PM 26.6 °F 16.8 °F 19.4 °F 74% 29.72 in 1.8 mi WSW 10.4 mph - 0.00 in Snow Light Snow
2:11 PM 24.8 °F 14.6 °F 21.2 °F 86% 29.71 in 1.2 mi WSW 10.4 mph - 0.00 in Snow Light Snow
2:13 PM 24.8 °F 15.3 °F 21.2 °F 86% 29.72 in 1.0 mi WSW 9.2 mph - 0.00 in Snow Light Snow
2:21 PM 24.8 °F 16.1 °F 21.2 °F 86% 29.72 in 0.8 mi WSW 8.1 mph - 0.00 in Snow Light Snow
2:34 PM 24.8 °F 16.1 °F 21.2 °F 86% 29.72 in 1.0 mi WSW 8.1 mph - 0.00 in Snow Light Snow
2:48 PM 24.8 °F 16.1 °F 21.2 °F 86% 29.71 in 1.2 mi WSW 8.1 mph - 0.00 in Snow Light Snow
2:56 PM 25.2 °F 17.3 °F 22.1 °F 88% 29.73 in 1.5 mi WSW 6.9 mph - 0.00 in Snow Light Snow
3:08 PM 24.8 °F 17.9 °F 21.2 °F 86% 29.70 in 2.5 mi West 5.8 mph - 0.00 in Snow Light Snow
3:16 PM 24.8 °F 20.5 °F 21.2 °F 86% 29.69 in 3.0 mi West 3.5 mph - 0.00 in Snow Light Snow
3:56 PM 26.1 °F 21.9 °F 23.0 °F 88% 29.71 in 1.2 mi NE 3.5 mph - 0.00 in Snow Light Snow
3:59 PM 26.6 °F - 23.0 °F 86% 29.68 in 0.8 mi Calm Calm - 0.00 in Snow Light Snow
4:10 PM 26.6 °F - 23.0 °F 86% 29.69 in 0.5 mi Calm Calm - 0.00 in Fog , Snow Light Snow
4:20 PM 24.8 °F - 23.0 °F 93% 29.70 in 0.5 mi Calm Calm - 0.00 in Fog , Snow Snow
4:29 PM 24.8 °F - 23.0 °F 93% 29.70 in 0.2 mi Calm Calm - 0.00 in Fog , Snow Snow
4:41 PM 24.8 °F - 23.0 °F 93% 29.70 in 0.5 mi Calm Calm - 0.00 in Fog , Snow Light Snow
4:56 PM 25.2 °F - 24.1 °F 96% 29.73 in 0.5 mi Calm Calm - 0.00 in Fog , Snow Light Snow
5:13 PM 24.8 °F - 24.8 °F 100% 29.69 in 0.8 mi Calm Calm - 0.00 in Snow Light Snow
5:39 PM 24.8 °F - 24.8 °F 100% 29.68 in 0.5 mi Calm Calm - 0.01 in Fog , Snow Light Snow
5:56 PM 25.2 °F 19.5 °F 24.1 °F 96% 29.73 in 0.5 mi North 4.6 mph - 0.01 in Fog , Snow Light Snow
6:31 PM 24.8 °F 17.9 °F 24.8 °F 100% 29.70 in 1.0 mi North 5.8 mph - 0.00 in Snow Light Snow
6:40 PM 24.8 °F 16.9 °F 24.8 °F 100% 29.70 in 1.2 mi NNW 6.9 mph - 0.00 in Snow Light Snow
6:48 PM 24.8 °F 16.9 °F 24.8 °F 100% 29.71 in 1.2 mi NNW 6.9 mph - 0.00 in Snow Light Snow
6:56 PM 24.1 °F 15.2 °F 23.0 °F 96% 29.75 in 1.2 mi NNW 8.1 mph - 0.00 in Snow Light Snow
7:16 PM 24.8 °F 15.3 °F 23.0 °F 93% 29.72 in 1.0 mi NNW 9.2 mph - 0.00 in Snow Light Snow
7:42 PM 23.0 °F 11.7 °F 21.2 °F 93% 29.72 in 1.2 mi NNW 11.5 mph - 0.01 in Snow Light Snow
7:56 PM 23.0 °F 11.7 °F 22.1 °F 96% 29.76 in 1.0 mi NNW 11.5 mph - 0.01 in Snow Light Snow
8:07 PM 23.0 °F 11.7 °F 21.2 °F 93% 29.71 in 1.2 mi NNW 11.5 mph - 0.00 in Snow Light Snow
8:13 PM 23.0 °F 12.4 °F 21.2 °F 93% 29.71 in 1.5 mi NNW 10.4 mph - 0.00 in Snow Light Snow
8:30 PM 23.0 °F 13.1 °F 21.2 °F 93% 29.71 in 2.0 mi North 9.2 mph - 0.00 in Snow Light Snow
8:56 PM 23.0 °F 14.7 °F 21.0 °F 92% 29.76 in 2.0 mi NNW 6.9 mph - 0.00 in Snow Light Snow
9:32 PM 21.2 °F 9.5 °F 19.4 °F 93% 29.73 in 1.8 mi NNW 11.5 mph - 0.00 in Snow Light Snow
9:56 PM 21.0 °F 9.3 °F 19.0 °F 92% 29.78 in 2.0 mi NNW 11.5 mph - 0.00 in Snow Light Snow
10:16 PM 21.2 °F 9.5 °F 19.4 °F 93% 29.75 in 1.5 mi NNW 11.5 mph - 0.00 in Snow Light Snow
10:27 PM 19.4 °F 7.2 °F 17.6 °F 93% 29.75 in 1.2 mi NNW 11.5 mph - 0.00 in Snow Light Snow
10:56 PM 20.1 °F 7.5 °F 18.1 °F 92% 29.79 in 1.8 mi NNW 12.7 mph - 0.00 in Snow Light Snow
11:04 PM 19.4 °F 6.0 °F 17.6 °F 93% 29.75 in 2.0 mi NNW 13.8 mph - 0.00 in Snow Light Snow
11:35 PM 19.4 °F 7.2 °F 17.6 °F 93% 29.75 in 2.0 mi NNW 11.5 mph - 0.00 in Snow Light Snow
11:56 PM 19.0 °F 6.8 °F 17.1 °F 92% 29.80 in 2.0 mi NNW 11.5 mph - 0.00 in Snow Light Snow